This is the latest recevied weather packets stored in our database for station/object GBTWP-2. If no packets are shown the sender has not sent any weather packets the latest 10 day(s).
| Time | Temp. | Humidity | Pressure | Rain* | Wind** | Luminosity | Snow |
|---|---|---|---|---|---|---|---|
| 1777947002 | 19.44° C | 63% | 1001.8 hPa | 0 mm | - | 0 W/m² | - |
| 1777946402 | 19.44° C | 64% | 1001.9 hPa | 0 mm | - | 0 W/m² | - |
| 1777946102 | 18.89° C | 63% | 1001.7 hPa | 0 mm | - | 0 W/m² | - |
| 1777945502 | 18.89° C | 64% | 1001.6 hPa | 0 mm | - | 0 W/m² | - |
| 1777945201 | 18.89° C | 64% | 1001.8 hPa | 0 mm | - | 0 W/m² | - |
| 1777944902 | 18.89° C | 63% | 1001.7 hPa | 0 mm | - | 0 W/m² | - |
| 1777944602 | 18.89° C | 63% | 1001.8 hPa | 0 mm | - | 0 W/m² | - |
| 1777944302 | 19.44° C | 62% | 1001.7 hPa | 0 mm | - | 0 W/m² | - |
| 1777944002 | 19.44° C | 61% | 1001.5 hPa | 0 mm | - | 0 W/m² | - |
| 1777943701 | 20° C | 60% | 1001.5 hPa | 0 mm | - | 0 W/m² | - |
| 1777943402 | 20° C | 59% | 1001.4 hPa | 0 mm | - | 0 W/m² | - |
| 1777943101 | 20° C | 58% | 1001.4 hPa | 0 mm | - | 0 W/m² | - |
| 1777942802 | 20° C | 56% | 1001.5 hPa | 0 mm | - | 0 W/m² | - |
| 1777942502 | 20.56° C | 55% | 1001.2 hPa | 0 mm | - | 0 W/m² | - |
| 1777942202 | 20° C | 54% | 1001.3 hPa | 0 mm | - | 0 W/m² | - |
| 1777941902 | 20.56° C | 54% | 1001.3 hPa | 0 mm | - | 1 W/m² | - |
| 1777941602 | 20.56° C | 51% | 1001.1 hPa | 0 mm | - | 1 W/m² | - |
| 1777941302 | 21.11° C | 50% | 1001.1 hPa | 0 mm | - | 2 W/m² | - |
| 1777941002 | 21.11° C | 51% | 1001 hPa | 0 mm | - | 3 W/m² | - |
| 1777940702 | 21.67° C | 50% | 1001 hPa | 0 mm | - | 4 W/m² | - |
| 1777940402 | 21.67° C | 49% | 1001 hPa | 0 mm | - | 6 W/m² | - |
| 1777940102 | 22.22° C | 47% | 1001 hPa | 0 mm | - | 7 W/m² | - |
| 1777939802 | 22.22° C | 47% | 1001.1 hPa | 0 mm | - | 11 W/m² | - |
| 1777939502 | 22.22° C | 47% | 1001.1 hPa | 0 mm | - | 12 W/m² | - |
| 1777939202 | 22.22° C | 47% | 1001.1 hPa | 0 mm | - | 13 W/m² | - |
* Rain latest hour (hover to see other rain measurements)
** Current wind speed in m/s (hover to see current wind gust speed)